Regional Weather Roundup
Issued by NWS Newport/Morehead, NC

Current Version | Previous Version | Text Only | Print | Product List | Glossary On
Versions: 1 2 3 4 5 6 7 8 9 10 11 12 13 14 15 16 17 18 19 20 21 22 23 24 25 26 27 28 29 30 31 32 33 34 35 36 37 38 39 40 41 42 43 44 45 46 47 48 49 50
000 ASUS42 KMHX 061325 RWRMHX WEATHER ROUNDUP FOR EASTERN NORTH CAROLINA NATIONAL WEATHER SERVICE NEWPORT/MOREHEAD CITY NC 900 AM EDT MON JUL 06 2015 NOTE: "FAIR" INDICATES FEW OR NO CLOUDS BELOW 12,000 FEET WITH NO SIGNIFICANT WEATHER AND/OR OBSTRUCTIONS TO VISIBILITY NCZ015>017-031-032-045>047-102-103-061400- NORTH COAST CITY SKY/WX TMP DP RH WIND PRES REMARKS EDENTON N/A 79 73 82 SW6 30.15S ELIZABETH CITY MOSUNNY 79 74 84 SW12 30.15R KITTY HAWK MOSUNNY 82 76 80 SW7 30.14S MANTEO MOSUNNY 81 74 79 SW7 30.16R $$ NCZ045>047-081-094-103-104-061400- CENTRAL COAST CITY SKY/WX TMP DP RH WIND PRES REMARKS FRISCO MOSUNNY 79 75 87 S5 30.17S SWANQUARTER N/A 81 N/A N/A SW12 30.12S $$ NCZ095-097-098-100-101-061400- SOUTHERN COAST CITY SKY/WX TMP DP RH WIND PRES REMARKS BEAUFORT MOSUNNY 82 74 76 SW8 30.16R CEDAR ISLAND N/A 79 N/A N/A S6 30.21R JACKSONVILLE MOSUNNY 81 72 74 SW9 30.14R PINEY ISLAND MOSUNNY N/A N/A N/A SW6 30.15S WILMINGTON PTSUNNY 83 73 72 SW10 30.15R $$ NCZ011>013-027>030-043-044-078>080-089-090>093-098-061400- COASTAL PLAIN CITY SKY/WX TMP DP RH WIND PRES REMARKS AHOSKIE PTSUNNY N/A N/A N/A S7 30.14S CLINTON SUNNY 79 73 83 SW7 30.15R ELIZABETHTOWN SUNNY 79 70 75 SW7 30.15R GOLDSBORO MOSUNNY 80 73 79 S2 30.12R GREENVILLE CLOUDY 81 75 83 S8 30.15S HAVELOCK MOSUNNY 81 72 74 S7 30.16S KENANSVILLE MOSUNNY 80 71 76 CALM 30.15R KINSTON MOSUNNY 81 73 78 SW7 30.15R NEW BERN MOSUNNY 82 73 74 SW8 30.16R RICHLANDS SUNNY 84 70 61 SW7 30.15R ROCKY MOUNT MOSUNNY 78 73 84 S7 30.13R WASHINGTON MOSUNNY 80 73 79 SW7 30.15S WHITEVILLE SUNNY 80 71 76 SW8 30.15R $$ AMZ130-135-150-152-154-156-158-170-250-252-270-ANZ085-086-088-633-658-670-061400- MARINE OBSERVATIONS STATION/POSITION TIME TEMP WIND PRES WAVE SWELL AIR SEA DIR/SP/G HT/PER HT/PER (UTC) (F) (DEG/KT/KT) (MB) (FT/S) (FT/S) CHESAPEAKE LIGHT 1300 77 190/ 8/ 9 1021.3 64 E VA BEACH 1250 78 77 210/ 8/ 10 1020.5 3/ 8 3/ 8 DUCK 1300 80 78 220/ 8/ 11 N/A 2 E DUCK 1211 78 N/A 2/13 OREGON INLET 1300 80 81 210/ 10/ 12 1021.0 13E OREGON INLT 1300 78 N/A 3/ 9 2/13 HATTERAS CG 1300 81 79 160/ 6/ 8 1021.4 DIAMOND BUOY 1250 80 81 210/ 8/ 10 1021.6 3/ 9 2/ 9 CAPE LOOKOUT 1300 80 210/ 5/ 6 1021.2 BEAUFORT LAB 1300 82 81 220/ 5/ 7 1020.6 30 SE NEW RVR IN NOT AVBL 27 SE WRIGHTSVLE 1300 80 230/ 8/ 8 N/A 5 SE WRIGHTSVLE 1208 80 78 220/ 8/ 12 1020.5 225 S CAPE HAT 1250 81 80 190/ 8/ 8 1023.1 3/ 9 3/ 9 41 SE CHARLESTON 1250 80 82 230/ 12/ 14 1021.0 3/ 8 2/ 8 $$

USA.gov is the U.S. government's official web portal to all federal, state and local government web resources and services.